Tracking 19651 objects as of 23-Apr-2019
HD Live streaming from Space Station
objects crossing your sky now

COSMOS 80

Track COSMOS 80 now!
10-day predictions
COSMOS 80 is classified as:


NORAD ID: 1570
Int'l Code: 1965-070A
Perigee: 1,379.2 km
Apogee: 1,541.0 km
Inclination: 56.1 °
Period: 114.9 minutes
Semi major axis: 7831 km
RCS: 0.3558 m2 (medium)
Launch date: September 3, 1965
Source: Commonwealth of Independent States (former USSR) (CIS)
Launch site: TYURATAM MISSILE AND SPACE COMPLEX (TTMTR)
aabbcc
Your satellite tracking list
Your tracking list is empty




NASA's NSSDC Master Catalog

Two Line Element Set (TLE):
1  1570U 65070A   19113.07031378 -.00000080  00000-0  10339-3 0  9993
2  1570  56.0583 357.6438 0103273  21.8228 121.1724 12.52761101454453
Source of the keplerian elements: AFSPC